Tracking 19176 objects as of 26-May-2018
HD Live streaming from Space Station
objects crossing your sky now

NOAA 16 DEB

Track NOAA 16 DEB now!
10-day predictions


NORAD ID: 41293
Int'l Code: 2000-055GV
Perigee: 857.8 km
Apogee: 901.2 km
Inclination: 98.9 °
Period: 102.4 minutes
Semi major axis: 7250 km
RCS: Unknown
Launch date: September 21, 2000
Source: United States (US)
Launch site: AIR FORCE WESTERN TEST RANGE (AFWTR)

Note: This is SATELLITE DEBRIS
aabbcc
Your satellite tracking list
Your tracking list is empty




NASA's NSSDC Master Catalog

Two Line Element Set (TLE):
1 41293U 00055GV  18144.98607875 +.00001016 +00000-0 +64156-3 0  9990
2 41293 098.9279 212.8260 0029953 271.8955 087.8783 14.06209499124148
Source of the keplerian elements: AFSPC